カタログに戻る

AEROCUBE 6A

運用中科学SSO
NORAD 40045·PAYLOAD·🇺🇸 United States

打ち上げ Jun 19, 2014 から Dombarovsky

Loading…

次のパス (今後24時間)

TLE

最新Source: Space-Track

元期: Sep 14, 2026, 10:26 UTC

1 40045U 14033AM  26257.43514453  .00003580  00000-0  29638-3 0  9992
2 40045  97.7333  63.5363 0039289  75.4832 285.0744 14.98915437659981

AllMySatでAEROCUBE 6Aをリアルタイム追跡

Download on the App Store